Regional Weather Roundup
Issued by NWS

Home | Current Version | Previous Version | Graphics & Text | Print | Product List | Glossary On
Versions: 1 2 3 4 5 6 7 8 9 10 11 12 13 14 15 16 17 18 19 20 21 22 23 24 25 26 27 28 29 30 31 32 33 34 35 36 37 38 39 40 41 42 43 44 45 46 47 48 49 50
000
ASUS45 KPSR 050210
RWRAZ

ARIZONA REGIONAL HOURLY WEATHER ROUNDUP
NATIONAL WEATHER SERVICE PHOENIX AZ
700 PM MST MON MAY 04 2015

NOTE: FAIR INDICATES FEW OR NO CLOUDS BELOW 12,000 FEET WITH NO
SIGNIFICANT WEATHER AND/OR OBSTRUCTIONS TO VISIBILITY.

AZZ001>003-036-050300-
NORTHWEST ARIZONA

CITY           SKY/WX    TMP DP  RH WIND       PRES   REMARKS
BULLHEAD CITY  CLOUDY    66  55  68 SE21      29.75F
KINGMAN        CLOUDY    62  45  53 W14       29.91R
$$

AZZ004>008-015-016-018-050300-
NORTH CENTRAL ARIZONA

CITY           SKY/WX    TMP DP  RH WIND       PRES   REMARKS
GRAND CANYON   PTCLDY    49  42  77 VRB3      29.98F
WILLIAMS       MOCLDY    50  39  66 W6        30.04S
PRESCOTT       MOCLDY    53  44  71 SW3       29.94S
FLAGSTAFF      PTCLDY    50  41  71 SW8       29.98S
PAYSON         MOCLDY    61  41  48 SW8G21    29.94R
PAGE           PTCLDY    69  39  33 NW3       29.84S
$$

AZZ009>014-017-050300-
NORTHEAST ARIZONA

CITY           SKY/WX    TMP DP  RH WIND       PRES   REMARKS
WINSLOW        PTCLDY    60  39  45 SW14      29.91S
SAINT JOHNS    CLOUDY    54  44  69 E6        29.96S
WINDOW ROCK    MOCLDY    52  41  66 N3        30.00F
SHOW LOW       RAIN      45  41  87 S13       30.05R
$$

AZZ023-050300-
GREATER PHOENIX AREA

CITY           SKY/WX    TMP DP  RH WIND       PRES   REMARKS
PHOENIX        MOCLDY    76  48  37 W21G31    29.79R
GLENDALE       MOCLDY    73  52  46 SW20G32   29.82R
DEER VALLEY    PTCLDY    75  45  34 W21G28    29.79R
SCOTTSDALE     PTCLDY    76  44  32 W12       29.81R
MESA-FALCON    MOCLDY    77  45  31 MISG      29.79R
MESA-GATEWAY   MOCLDY    72  52  49 E12       29.82R
CHANDLER       MOCLDY    77  45  31 W12       29.79R
$$

AZZ027-028-050300-
SOUTHWEST MARICOPA COUNTY AND PINAL COUNTY

CITY           SKY/WX    TMP DP  RH WIND       PRES   REMARKS
CASA GRANDE    MOCLDY    73  43  33 W12       29.80R
$$

AZZ503-504-507>509-050300-
SOUTHEAST ARIZONA

CITY           SKY/WX    TMP DP  RH WIND       PRES   REMARKS
TUCSON         LGT RAIN  71  49  45 N15       29.86R
RYAN FIELD       N/A     72  48  43 NW12      29.88R
NOGALES        CLEAR     69  38  32 S15G23    29.90R
DOUGLAS        CLOUDY    71  35  26 SW17      29.89R
SAFFORD        MOCLDY    64  48  56 NW15      29.85R
$$

AZZ020-021-025-026-031-050300-
SOUTHWEST ARIZONA

CITY           SKY/WX    TMP DP  RH WIND       PRES   REMARKS
YUMA           MOCLDY    81  50  33 S14       29.77R THUNDER
$$

CAZ031-033-041-043-047-048-061-050300-
SOUTHERN CALIFORNIA

CITY           SKY/WX    TMP DP  RH WIND       PRES   REMARKS
DOWNTOWN L.A.  CLEAR     61  50  67 VRB6      29.93R
L.A. AIRPORT   PTCLDY    59  52  77 W16       29.94R
SAN DIEGO      MOCLDY    64  52  63 W7        29.98R
BURBANK        CLEAR     62  49  62 S10       29.91R
ONTARIO        PTCLDY    65  49  56 W15       29.90R
RIVERSIDE      CLEAR     66  49  54 W9        29.91R
PALM SPRINGS   PTCLDY    85  43  22 NW17G29   29.74R
EL CENTRO NAS  PTCLDY    84  49  29 SW17      29.74R
IMPERIAL       CLEAR     84  50  30 SW13      29.71S
BLYTHE         CLOUDY    79  53  40 SE10      29.74R
NEEDLES        CLOUDY    70  51  51 E6        29.81F
$$

NVZ020-UTZ003-050300-
SOUTHERN NEVADA-UTAH

CITY           SKY/WX    TMP DP  RH WIND       PRES   REMARKS
LAS VEGAS      CLOUDY    74  41  30 E15       29.78R
SALT LAKE CITY MOCLDY    68  43  40 NW6       29.84R
$$

NMZ009-TXZ055-050300-
NEW MEXICO-WEST TEXAS

CITY           SKY/WX    TMP DP  RH WIND       PRES   REMARKS
ALBUQUERQUE    RAIN      53  51  93 E14       29.95F
EL PASO        MOCLDY    73  50  44 N16       29.79R
$$


........................KEY........................
SKY/WX - SKY CONDITION/WEATHER
TMP    - TEMPERATURE IN FAHRENHEIT
DP     - DEW POINT IN FAHRENHEIT
RH     - RELATIVE HUMIDITY IN PERCENT
WIND   - DIRECTION AND SPEED IN MILES PER HOUR (MPH)
VRB    - VARIABLE WIND DIRECTION
PRES   - MEAN SEA LEVEL PRESSURE IN INCHES OF MERCURY
         F - FALLING PRESSURE   R - RISING PRESSURE
         S - STEADY PRESSURE
VSB    - VISIBILITY IN MILES
HX     - HEAT INDEX IN FAHRENHEIT
WCI    - WIND CHILL INDEX IN FAHRENHEIT
TC     - TEMPERATURE IN CELSIUS WHICH IS ALSO KNOWN AS
         TEMPERATURE IN CENTIGRADE
AFB    - AIR FORCE BASE
         LUKE AFB IS LUKE AIR FORCE BASE
         DAVIS-MONTHAN IS DAVIS-MONTHAN AIR FORCE BASE
NAS    - NAVAL AIR STATION
         EL CENTRO NAS IS EL CENTRO NAVAL AIR STATION
N/A    - NOT AVAILABLE



USA.gov is the U.S. government's official web portal to all federal, state and local government web resources and services.